User: anonymous   Login
Location: Unspecified
(0.0000°N, 0.0000°E)
Time: 09:29:07
(UTC+00:00)
Language:

FIREBIRD 4 - Orbit

View from above orbital plane
View from above orbital plane
View from above satellite
View from above satellite

Ground track
Ground track

The orbit data is extracted from the following two-line orbital elements,

1 40378U 15003C   17327.81729421  .00004237  00000-0  17827-3 0  9999
2 40378  99.1097 183.7250 0133505 192.5755 167.2132 15.16359541155199
Epoch (UTC): 23 November 2017 19:36:54
Eccentricity: 0.0133505
inclination: 99.1097°
perigee height: 425 km
apogee height: 609 km
right ascension of ascending node: 183.7250°
argument of perigee: 192.5755°
revolutions per day: 15.16359541
mean anomaly at epoch: 167.2132°
orbit number at epoch: 15519

The dashed part of the orbit path shows where the satellite is in the earth's shadow,  

DLR